TimeEDT,TemperatureF,Dew PointF,Humidity,Sea Level PressureIn,VisibilityMPH,Wind Direction,Wind SpeedMPH,Gust SpeedMPH,PrecipitationIn,Events,Conditions,WindDirDegrees,DateUTC
12:52 AM,34.0,32.0,92,30.08,10.0,Calm,Calm,-,N/A,,Clear,0,2013-05-15 04:52:00
1:05 AM,33.8,30.2,87,30.06,1.8,Calm,Calm,-,N/A,,Clear,0,2013-05-15 05:05:00
1:15 AM,33.8,30.2,87,30.06,4.0,Calm,Calm,-,N/A,,Clear,0,2013-05-15 05:15:00
1:52 AM,32.0,30.0,92,30.07,8.0,Calm,Calm,-,N/A,,Clear,0,2013-05-15 05:52:00
2:52 AM,30.9,28.9,92,30.07,9.0,Calm,Calm,-,N/A,,Clear,0,2013-05-15 06:52:00
3:52 AM,30.0,28.9,96,30.07,3.0,Calm,Calm,-,N/A,,Scattered Clouds,0,2013-05-15 07:52:00
4:01 AM,30.2,28.4,93,30.06,3.0,Calm,Calm,-,N/A,,Mostly Cloudy,0,2013-05-15 08:01:00
4:08 AM,30.2,28.4,93,30.06,2.5,Calm,Calm,-,N/A,,Mostly Cloudy,0,2013-05-15 08:08:00
4:18 AM,28.4,28.4,100,30.05,1.2,Calm,Calm,-,N/A,,Mostly Cloudy,0,2013-05-15 08:18:00
4:25 AM,28.4,26.6,93,30.06,1.0,Calm,Calm,-,N/A,,Mostly Cloudy,0,2013-05-15 08:25:00
4:27 AM,28.4,26.6,93,30.06,1.5,Calm,Calm,-,N/A,,Mostly Cloudy,0,2013-05-15 08:27:00
4:30 AM,28.4,26.6,93,30.06,1.0,Calm,Calm,-,N/A,,Mostly Cloudy,0,2013-05-15 08:30:00
4:38 AM,30.2,28.4,93,30.05,0.2,Calm,Calm,-,N/A,Fog,Light Freezing Fog,0,2013-05-15 08:38:00
4:52 AM,30.0,28.9,96,30.07,0.5,Calm,Calm,-,N/A,Fog,Light Freezing Fog,0,2013-05-15 08:52:00
5:52 AM,30.0,30.0,100,30.07,0.2,Calm,Calm,-,N/A,Fog,Light Freezing Fog,0,2013-05-15 09:52:00
6:52 AM,30.9,30.9,100,30.06,0.2,Calm,Calm,-,N/A,Fog,Light Freezing Fog,0,2013-05-15 10:52:00
7:34 AM,33.8,33.8,100,30.04,1.2,Calm,Calm,-,N/A,,Overcast,0,2013-05-15 11:34:00
7:36 AM,33.8,33.8,100,30.04,2.5,Calm,Calm,-,N/A,,Overcast,0,2013-05-15 11:36:00
7:43 AM,35.6,33.8,93,30.04,9.0,Calm,Calm,-,N/A,,Mostly Cloudy,0,2013-05-15 11:43:00
7:52 AM,36.0,35.1,97,30.05,10.0,Calm,Calm,-,N/A,,Scattered Clouds,0,2013-05-15 11:52:00
8:52 AM,46.9,36.0,66,30.02,10.0,Calm,Calm,-,N/A,,Clear,0,2013-05-15 12:52:00
9:52 AM,55.0,33.1,43,29.99,10.0,SSE,11.5,-,N/A,,Clear,160,2013-05-15 13:52:00
10:52 AM,57.9,34.0,41,29.98,10.0,SSE,13.8,19.6,N/A,,Clear,160,2013-05-15 14:52:00
11:52 AM,60.1,32.0,35,29.95,10.0,South,19.6,27.6,N/A,,Scattered Clouds,190,2013-05-15 15:52:00
12:52 PM,61.0,36.0,39,29.92,10.0,South,16.1,24.2,N/A,,Overcast,180,2013-05-15 16:52:00
1:52 PM,57.9,37.9,47,29.88,10.0,SSE,13.8,20.7,0.00,Rain,Light Rain,160,2013-05-15 17:52:00
2:52 PM,54.0,43.0,66,29.87,10.0,SSW,16.1,-,0.01,Rain,Light Rain,210,2013-05-15 18:52:00
3:52 PM,54.0,48.9,83,29.80,10.0,SSE,5.8,-,0.06,,Mostly Cloudy,160,2013-05-15 19:52:00
4:13 PM,53.6,46.4,77,29.78,10.0,South,8.1,17.3,0.00,,Mostly Cloudy,170,2013-05-15 20:13:00
4:52 PM,54.0,48.9,83,29.76,10.0,South,6.9,-,0.00,,Overcast,170,2013-05-15 20:52:00
5:52 PM,55.0,50.0,83,29.71,10.0,SSE,12.7,18.4,N/A,,Overcast,160,2013-05-15 21:52:00
6:52 PM,55.0,51.1,86,29.73,10.0,Variable,5.8,-,N/A,,Overcast,0,2013-05-15 22:52:00
7:52 PM,55.0,51.1,86,29.70,10.0,South,4.6,-,N/A,,Mostly Cloudy,180,2013-05-15 23:52:00
8:00 PM,55.4,51.8,88,29.69,10.0,South,6.9,-,N/A,,Scattered Clouds,180,2013-05-16 00:00:00
8:52 PM,52.0,50.0,93,29.70,10.0,Calm,Calm,-,N/A,,Partly Cloudy,0,2013-05-16 00:52:00
9:52 PM,51.1,50.0,96,29.71,10.0,Calm,Calm,-,N/A,,Clear,0,2013-05-16 01:52:00
10:31 PM,48.2,48.2,100,29.71,1.8,Calm,Calm,-,N/A,,Clear,0,2013-05-16 02:31:00
10:43 PM,48.2,48.2,100,29.71,1.0,Calm,Calm,-,N/A,,Clear,0,2013-05-16 02:43:00
10:46 PM,48.2,48.2,100,29.71,0.8,Calm,Calm,-,N/A,,Mist,0,2013-05-16 02:46:00
10:52 PM,48.9,48.0,97,29.71,0.8,Calm,Calm,-,N/A,,Mist,0,2013-05-16 02:52:00
11:09 PM,46.4,46.4,100,29.70,1.2,Variable,3.5,-,N/A,,Partly Cloudy,0,2013-05-16 03:09:00
11:15 PM,46.4,46.4,100,29.70,0.8,Calm,Calm,-,N/A,,Mist,0,2013-05-16 03:15:00
11:23 PM,46.4,46.4,100,29.70,1.2,Calm,Calm,-,N/A,,Partly Cloudy,0,2013-05-16 03:23:00
11:26 PM,46.4,46.4,100,29.70,2.5,South,3.5,-,N/A,,Clear,180,2013-05-16 03:26:00
11:34 PM,46.4,46.4,100,29.70,4.0,South,4.6,-,N/A,,Clear,180,2013-05-16 03:34:00
11:52 PM,46.9,46.9,100,29.70,6.0,Calm,Calm,-,N/A,,Clear,0,2013-05-16 03:52:00